Location: Unspecified
(56.5167°N, 0.0000°E)
Time: 13:13:55
(UTC+02:00)

Resurs 1-4 Rocket - Visible Passes

Search period start: 08 May 2021 00:00
Search period end: 18 May 2021 00:00
Orbit: 799 x 815 km, 98.6° (Epoch: 07 May)

Date Brightness Start Highest point End Pass type
(mag) Time Alt. Az. Time Alt. Az. Time Alt. Az.
08 May 3.8 02:34:47 10° NE 02:38:59 24° E 02:43:02 11° SE visible
08 May 2.1 04:14:07 10° NNE 04:19:24 75° WNW 04:24:07 13° SSW visible
09 May 4.2 02:10:47 10° NE 02:14:00 16° E 02:17:13 10° ESE visible
09 May 2.2 03:49:27 10° NNE 03:54:45 76° ESE 03:59:15 14° S visible
10 May 4.5 01:48:00 10° ENE 01:48:55 10° E 01:49:51 10° E visible
10 May 2.7 03:24:52 10° NNE 03:30:02 52° E 03:34:24 14° S visible
10 May 3.0 05:04:57 10° N 05:09:44 36° WNW 05:14:30 10° WSW visible
11 May 3.2 03:00:24 10° NNE 03:05:13 35° E 03:09:32 12° SSE visible
11 May 2.5 04:40:10 10° N 04:45:16 51° WNW 04:50:20 10° SW visible
12 May 3.8 02:36:05 10° NE 02:40:20 24° E 02:44:33 10° SE visible
12 May 2.2 04:15:26 10° NNE 04:20:42 74° WNW 04:25:45 11° SSW visible
13 May 4.2 02:12:04 10° NE 02:15:21 16° E 02:18:38 10° ESE visible
13 May 2.2 03:50:46 10° NNE 03:56:04 78° ESE 04:00:53 13° SSW visible
14 May 4.5 01:49:04 10° ENE 01:50:17 11° E 01:51:29 10° E visible
14 May 2.6 03:26:11 10° NNE 03:31:22 53° E 03:36:01 13° S visible
15 May 3.2 03:01:42 10° NNE 03:06:34 36° E 03:11:09 11° SSE visible
15 May 2.6 04:41:30 10° N 04:46:35 50° WNW 04:51:39 10° SW visible
16 May 3.8 02:37:23 10° NE 02:41:41 25° E 02:45:57 10° SE visible
16 May 2.2 04:16:46 10° NNE 04:22:02 72° WNW 04:27:16 10° SSW visible
17 May 4.2 02:13:21 10° NE 02:16:42 17° E 02:20:03 10° SE visible
17 May 2.2 03:52:06 10° NNE 03:57:24 79° ESE 04:02:29 11° SSW visible
